TimeCST,TemperatureF,Dew PointF,Humidity,Sea Level PressureIn,VisibilityMPH,Wind Direction,Wind SpeedMPH,Gust SpeedMPH,PrecipitationIn,Events,Conditions,WindDirDegrees,DateUTC
12:15 AM,60.8,59.0,94,30.08,7.0,Calm,Calm,-,N/A,,Clear,0,2012-12-03 06:15:00
12:35 AM,59.0,57.2,94,30.08,5.0,Calm,Calm,-,N/A,,Clear,0,2012-12-03 06:35:00
12:55 AM,57.2,55.4,94,30.08,3.0,Calm,Calm,-,N/A,,Clear,0,2012-12-03 06:55:00
1:15 AM,57.2,55.4,94,30.08,3.0,Calm,Calm,-,N/A,,Clear,0,2012-12-03 07:15:00
1:35 AM,55.4,55.4,100,30.08,3.0,Calm,Calm,-,N/A,,Scattered Clouds,0,2012-12-03 07:35:00
1:55 AM,55.4,55.4,100,30.08,4.0,Calm,Calm,-,N/A,,Overcast,0,2012-12-03 07:55:00
2:15 AM,55.4,55.4,100,30.08,5.0,Calm,Calm,-,N/A,,Mostly Cloudy,0,2012-12-03 08:15:00
2:35 AM,57.2,55.4,94,30.07,5.0,Calm,Calm,-,N/A,,Mostly Cloudy,0,2012-12-03 08:35:00
2:55 AM,57.2,55.4,94,30.07,4.0,Calm,Calm,-,N/A,,Mostly Cloudy,0,2012-12-03 08:55:00
3:15 AM,57.2,57.2,100,30.07,3.0,Calm,Calm,-,N/A,,Mostly Cloudy,0,2012-12-03 09:15:00
3:35 AM,57.2,57.2,100,30.07,3.0,Calm,Calm,-,N/A,,Overcast,0,2012-12-03 09:35:00
3:55 AM,57.2,57.2,100,30.07,4.0,Calm,Calm,-,N/A,,Overcast,0,2012-12-03 09:55:00
4:15 AM,57.2,55.4,94,30.06,3.0,Calm,Calm,-,N/A,,Overcast,0,2012-12-03 10:15:00
4:35 AM,55.4,55.4,100,30.06,3.0,Calm,Calm,-,N/A,,Overcast,0,2012-12-03 10:35:00
4:55 AM,60.8,60.8,100,30.06,6.0,Calm,Calm,-,N/A,,Overcast,0,2012-12-03 10:55:00
5:15 AM,60.8,60.8,100,30.06,6.0,Calm,Calm,-,N/A,,Overcast,0,2012-12-03 11:15:00
5:35 AM,62.6,60.8,94,30.06,8.0,SSE,3.5,-,N/A,,Overcast,150,2012-12-03 11:35:00
5:55 AM,62.6,60.8,94,30.06,8.0,SSE,3.5,-,N/A,,Mostly Cloudy,160,2012-12-03 11:55:00
6:15 AM,62.6,60.8,94,30.06,8.0,SSE,3.5,-,N/A,,Mostly Cloudy,160,2012-12-03 12:15:00
6:35 AM,62.6,60.8,94,30.07,9.0,Calm,Calm,-,N/A,,Mostly Cloudy,0,2012-12-03 12:35:00
6:55 AM,62.6,60.8,94,30.07,8.0,Calm,Calm,-,N/A,,Overcast,0,2012-12-03 12:55:00
7:15 AM,62.6,60.8,94,30.07,9.0,Calm,Calm,-,N/A,,Overcast,0,2012-12-03 13:15:00
7:35 AM,62.6,60.8,94,30.07,9.0,Calm,Calm,-,N/A,,Overcast,0,2012-12-03 13:35:00
7:55 AM,62.6,60.8,94,30.07,10.0,SSE,5.8,-,N/A,,Overcast,160,2012-12-03 13:55:00
8:55 AM,64.4,60.8,88,30.08,8.0,South,6.9,-,N/A,,Mostly Cloudy,180,2012-12-03 14:55:00
9:15 AM,64.4,62.6,94,30.09,8.0,South,6.9,-,N/A,,Mostly Cloudy,190,2012-12-03 15:15:00
9:35 AM,64.4,62.6,94,30.09,9.0,South,8.1,-,N/A,,Overcast,180,2012-12-03 15:35:00
9:55 AM,66.2,62.6,88,30.09,9.0,South,4.6,-,N/A,,Overcast,180,2012-12-03 15:55:00
10:15 AM,66.2,62.6,88,30.08,10.0,Calm,Calm,-,N/A,,Overcast,0,2012-12-03 16:15:00
10:35 AM,68.0,60.8,78,30.08,10.0,Calm,Calm,-,N/A,,Overcast,0,2012-12-03 16:35:00
10:55 AM,68.0,60.8,78,30.07,10.0,South,9.2,-,N/A,,Overcast,170,2012-12-03 16:55:00
11:15 AM,69.8,62.6,78,30.07,10.0,SSW,12.7,17.3,N/A,,Mostly Cloudy,200,2012-12-03 17:15:00
11:35 AM,71.6,60.8,69,30.06,10.0,SSW,11.5,21.9,N/A,,Mostly Cloudy,200,2012-12-03 17:35:00
11:55 AM,71.6,60.8,69,30.05,10.0,South,15.0,24.2,N/A,,Scattered Clouds,180,2012-12-03 17:55:00
12:15 PM,71.6,60.8,69,30.04,10.0,South,10.4,21.9,N/A,,Partly Cloudy,190,2012-12-03 18:15:00
12:35 PM,73.4,60.8,65,30.03,10.0,South,13.8,24.2,N/A,,Partly Cloudy,180,2012-12-03 18:35:00
12:55 PM,73.4,60.8,65,30.01,10.0,South,15.0,26.5,N/A,,Partly Cloudy,180,2012-12-03 18:55:00
1:15 PM,73.4,60.8,65,30.00,10.0,South,10.4,18.4,N/A,,Scattered Clouds,180,2012-12-03 19:15:00
1:35 PM,73.4,62.6,69,29.99,10.0,South,10.4,17.3,N/A,,Scattered Clouds,170,2012-12-03 19:35:00
1:55 PM,73.4,62.6,69,29.99,10.0,South,16.1,19.6,N/A,,Scattered Clouds,190,2012-12-03 19:55:00
2:15 PM,73.4,62.6,69,29.98,10.0,South,10.4,20.7,N/A,,Scattered Clouds,170,2012-12-03 20:15:00
2:35 PM,73.4,60.8,65,29.98,10.0,South,10.4,20.7,N/A,,Scattered Clouds,170,2012-12-03 20:35:00
2:55 PM,73.4,60.8,65,29.98,10.0,South,10.4,20.7,N/A,,Partly Cloudy,170,2012-12-03 20:55:00
3:15 PM,73.4,60.8,65,29.98,10.0,South,15.0,18.4,N/A,,Clear,170,2012-12-03 21:15:00
3:35 PM,73.4,60.8,65,29.97,10.0,South,9.2,20.7,N/A,,Clear,180,2012-12-03 21:35:00
3:55 PM,73.4,60.8,65,29.97,10.0,SE,12.7,-,N/A,,Clear,140,2012-12-03 21:55:00
4:15 PM,73.4,60.8,65,29.97,10.0,South,6.9,18.4,N/A,,Partly Cloudy,170,2012-12-03 22:15:00
4:35 PM,71.6,60.8,69,29.97,10.0,SSE,6.9,-,N/A,,Scattered Clouds,150,2012-12-03 22:35:00
4:55 PM,71.6,60.8,69,29.97,10.0,Calm,Calm,-,N/A,,Scattered Clouds,0,2012-12-03 22:55:00
5:15 PM,71.6,60.8,69,29.97,10.0,SSE,3.5,-,N/A,,Partly Cloudy,160,2012-12-03 23:15:00
5:35 PM,71.6,60.8,69,29.98,10.0,SSE,6.9,-,N/A,,Mostly Cloudy,160,2012-12-03 23:35:00
6:15 PM,71.6,59.0,64,29.99,10.0,SSE,9.2,18.4,N/A,,Overcast,160,2012-12-04 00:15:00
6:35 PM,69.8,60.8,73,29.99,10.0,SSE,6.9,-,N/A,,Mostly Cloudy,150,2012-12-04 00:35:00
6:55 PM,69.8,60.8,73,30.00,10.0,SSE,5.8,-,N/A,,Mostly Cloudy,150,2012-12-04 00:55:00
7:15 PM,69.8,60.8,73,30.00,10.0,South,9.2,-,N/A,,Mostly Cloudy,170,2012-12-04 01:15:00
7:35 PM,69.8,60.8,73,30.01,10.0,South,5.8,-,N/A,,Mostly Cloudy,170,2012-12-04 01:35:00
8:15 PM,69.8,60.8,73,30.01,10.0,South,8.1,-,N/A,,Mostly Cloudy,180,2012-12-04 02:15:00
8:35 PM,69.8,60.8,73,30.02,10.0,South,4.6,-,N/A,,Mostly Cloudy,180,2012-12-04 02:35:00
8:55 PM,68.0,60.8,78,30.01,10.0,South,4.6,-,N/A,,Partly Cloudy,170,2012-12-04 02:55:00
9:15 PM,68.0,60.8,78,30.02,10.0,South,6.9,-,N/A,,Clear,180,2012-12-04 03:15:00
9:35 PM,66.2,60.8,83,30.03,10.0,South,9.2,-,N/A,,Partly Cloudy,190,2012-12-04 03:35:00
9:55 PM,68.0,60.8,78,30.04,10.0,Calm,Calm,-,N/A,,Mostly Cloudy,0,2012-12-04 03:55:00
10:15 PM,68.0,62.6,83,30.04,10.0,SSW,5.8,-,N/A,,Mostly Cloudy,210,2012-12-04 04:15:00
10:35 PM,68.0,62.6,83,30.04,10.0,Calm,Calm,-,N/A,,Mostly Cloudy,0,2012-12-04 04:35:00
10:55 PM,68.0,62.6,83,30.04,10.0,Calm,Calm,-,N/A,,Overcast,0,2012-12-04 04:55:00
11:15 PM,66.2,62.6,88,30.03,10.0,Calm,Calm,-,N/A,,Mostly Cloudy,0,2012-12-04 05:15:00
11:35 PM,66.2,62.6,88,30.02,10.0,Calm,Calm,-,N/A,,Mostly Cloudy,0,2012-12-04 05:35:00
11:55 PM,64.4,62.6,94,30.02,10.0,Calm,Calm,-,N/A,,Scattered Clouds,0,2012-12-04 05:55:00